Weather History for KLND - January, 2015

Change the Weather History Date:

Monday, January 12, 2015

  Actual Average Record
Temperature  
Mean Temperature 26 °F 22 °F  
Max Temperature 28 °F 33 °F 60 °F (1953)
Min Temperature 23 °F 10 °F -37 °F (1963)
Degree Days  
Heating Degree Days 39 43  
Month to date heating degree days 602 525  
Since 1 July heating degree days 3429 3771  
Cooling Degree Days 0 0  
Month to date cooling degree days 0 0  
Year to date cooling degree days 0 0  
Moisture  
Dew Point 22 °F    
Average Humidity 86    
Maximum Humidity 96    
Minimum Humidity 75    
Precipitation  
Precipitation 0.00 in 0.01 in 0.36 in (1932)
Month to date precipitation T 0.17  
Year to date precipitation T 0.17  
Snow  
Snow 0.00 in 0.20 in - ()
Month to date snowfall 0.3 3.0  
Since 1 July snowfall 30.3 38.7  
Snow Depth 8.00 in    
Sea Level Pressure  
Sea Level Pressure 30.25 in    
Wind  
Wind Speed 2 mph (NW)    
Max Wind Speed 12 mph    
Max Gust Speed 13 mph    
Visibility 7 miles    
Events      
T = Trace of Precipitation, MM = Missing Value Source: NWS Daily Summary

Daily Weather History Graph

Daily Weather History Graph

Search for Another Location

Airport or City:

Trip Planner

Search our weather history database for the weather conditions in past years. The results will help you decide how hot, cold, wet, or windy it might be!

Date:

Astronomy

Jan. 12, 2015 Rise Set
Actual Time 7:44 AM MST 5:02 PM MST
Civil Twilight 7:12 AM MST 5:34 PM MST
Nautical Twilight 6:37 AM MST 6:09 PM MST
Astronomical Twilight 6:03 AM MST 6:43 PM MST
Moon No Moon Rise 11:20 AM MST (1/12)
Length of Visible Light 10h 21m
Length of Day
9h 18m
Waning Gibbous, 56% of the Moon is Illuminated
Jan 12
Waning Gibbous
Jan 13
Last Quarter
Jan 20
New
Jan 26
First Quarter
Feb 3
Full

Hourly Weather History & Observations

Time (MST) Temp. Windchill Dew Point Humidity Pressure Visibility Wind Dir Wind Speed Gust Speed Precip Events Conditions
12:53 AM 24.1 °F 15.2 °F 21.9 °F 91% 30.30 in 8.0 mi NW 8.1 mph - N/A   Overcast
1:53 AM 24.1 °F 16.0 °F 21.9 °F 91% 30.30 in 7.0 mi NW 6.9 mph - N/A   Overcast
2:00 AM 24.1 °F 17.0 °F 21.9 °F 91% 30.20 in 7.0 mi NW 5.8 mph - N/A   Overcast
2:53 AM 24.1 °F 17.0 °F 21.9 °F 91% 30.31 in 7.0 mi NNW 5.8 mph - N/A   Overcast
3:53 AM 23.0 °F 13.1 °F 21.0 °F 92% 30.30 in 6.0 mi North 9.2 mph - N/A   Overcast
4:18 AM 23.0 °F 15.8 °F 21.0 °F 92% 30.20 in 5.0 mi NNW 5.8 mph - N/A   Overcast
4:53 AM 23.0 °F 17.0 °F 21.9 °F 96% 30.31 in 4.0 mi NW 4.6 mph - N/A   Overcast
5:53 AM 23.0 °F - 21.9 °F 96% 30.30 in 2.5 mi Calm Calm - N/A   Overcast
6:12 AM 23.0 °F - 21.9 °F 96% 30.20 in 3.0 mi Calm Calm - N/A   Overcast
6:39 AM 23.0 °F 17.0 °F 21.9 °F 96% 30.20 in 4.0 mi NW 4.6 mph - N/A   Overcast
6:53 AM 24.8 °F - 21.2 °F 86% 30.20 in 5.0 mi Calm Calm - N/A   Overcast
7:53 AM 24.1 °F - 21.0 °F 88% 30.30 in 7.0 mi Calm Calm - N/A   Overcast
8:50 AM 24.8 °F - 21.2 °F 86% 30.21 in 6.0 mi Calm Calm - N/A   Overcast
8:53 AM 24.1 °F - 21.0 °F 88% 30.33 in 6.0 mi Calm Calm - N/A   Overcast
9:01 AM 24.1 °F - 21.0 °F 88% 30.22 in 6.0 mi Calm Calm - N/A   Overcast
9:26 AM 24.1 °F - 21.9 °F 91% 30.22 in 2.5 mi Calm Calm - N/A   Overcast
9:32 AM 24.1 °F - 21.9 °F 91% 30.22 in 3.0 mi Calm Calm - N/A   Overcast
9:53 AM 24.1 °F - 21.9 °F 91% 30.34 in 4.0 mi Calm Calm - N/A   Overcast
10:16 AM 25.0 °F - 21.9 °F 88% 30.23 in 6.0 mi Calm Calm - N/A   Overcast
10:53 AM 26.1 °F - 21.9 °F 84% 30.33 in 7.0 mi Calm Calm - N/A   Overcast
11:30 AM 28.0 °F - 21.9 °F 78% 30.20 in 8.0 mi Calm Calm - N/A   Overcast
11:53 AM 26.1 °F - 23.0 °F 88% 30.30 in 7.0 mi Calm Calm - N/A   Overcast
12:32 PM 27.0 °F - 21.9 °F 81% 30.17 in 10.0 mi Calm Calm - N/A   Overcast
12:53 PM 28.0 °F - 21.9 °F 78% 30.27 in 10.0 mi Calm Calm - N/A   Overcast
1:53 PM 28.0 °F 24.2 °F 21.9 °F 78% 30.26 in 9.0 mi NE 3.5 mph - N/A   Overcast
2:53 PM 28.0 °F 24.2 °F 23.0 °F 81% 30.25 in 9.0 mi East 3.5 mph - N/A   Overcast
3:53 PM 27.0 °F - 23.0 °F 85% 30.25 in 9.0 mi Calm Calm - N/A   Overcast
4:53 PM 27.0 °F - 23.0 °F 85% 30.26 in 8.0 mi Calm Calm - N/A   Overcast
5:53 PM 26.1 °F - 23.0 °F 88% 30.26 in 8.0 mi Calm Calm - N/A   Overcast
6:53 PM 26.1 °F 21.9 °F 23.0 °F 88% 30.26 in 8.0 mi SE 3.5 mph - N/A   Overcast
7:53 PM 26.1 °F - 23.0 °F 88% 30.27 in 9.0 mi Calm Calm - N/A   Overcast
8:53 PM 26.1 °F - 23.0 °F 88% 30.27 in 9.0 mi Calm Calm - N/A   Overcast
9:53 PM 26.6 °F - 21.2 °F 80% 30.15 in 8.0 mi Calm Calm - N/A   Overcast
10:53 PM 25.0 °F 20.7 °F 21.9 °F 88% 30.26 in 7.0 mi West 3.5 mph - N/A   Overcast
11:53 PM 24.1 °F 18.2 °F 21.9 °F 91% 30.27 in 7.0 mi WSW 4.6 mph - N/A   Overcast